STARLINK-34583, 64713

Orbit data source: Space-Track

STARLINK-34583, 64713 is a payload satellite owned by SpaceX/Seattle (US) in LEO that was launched on Sat, 28 Jun 2025 UTC via an FALCON 9 launch vehicle from the Air Force Western Test Range (AFWTR). Payload-class satellites include a variety of spacecraft equipped with specific instruments for various scientific and technological missions. These include communications satellites like Starlink; space stations such as the ISS; scientific satellites like the Hubble; Earth observation satellites from companies like Planet Labs, Umbra, and HawkEye 360; GPS; miniature CubeSats for education and research; and military/defense satellites.

Loading next visibility...
Identifier
64713, 2025-142T
Orbit
LEO
Last TLE update
4 hours ago
Origin
Manufacturer
SpaceX/Seattle
Mission
Operational spacecraft
Bus & Motor
STARLINK V2MO, Unknown motor
Mass
575 kg wet, ~530 kg dry
Launch date (UTC)
2025-06-28 (3 weeks ago)
Launch vehicle
FALCON 9
Launch site
Air Force Western Test Range (AFWTR)
Object type
Payload
Rocket body
Debris
Shape & HBR
Unknown
Radar Cross Section
Large (>1 m²)

Expand to show TLE details & history

TLE from 4 hours ago
0 STARLINK-34583
1 64713U 25142T   25199.56483816 -.00153355  00000-0 -23947-2 0  9993
2 64713  70.0004 194.6838 0004206 277.6361  82.4348 15.54122296  4007
Epoch: 2025-07-18T13:33Z
TLE epoch observation values (Epoch: 2025-07-18T13:33:22.017Z)
Latitude
-0.00008°
Longitude
54.72755°
Altitude
406.814 km
Speed
7.667 km/s
True Right ascension
12h 58m 44s
True Declination
0° 00' 00"
Sunlit
Object was in daylight at epoch
Visualization orbit readout
Latitude
-28.58341°
Longitude
-114.35579°
Altitude
413.925 km
Speed
7.662 km/s
Apparent Right ascension
22h 33m 24s
Apparent Declination
-49° 29' 13"
Sunlit
Object is in daylight
Visualization observer readout
Local Sidereal Time
06:19:31
Azimuth
235.671° WSW
Elevation
-45.267°
Doppler factor
1
Orbital elements
Apogee altitude
405.455 km
Perigee altitude
399.751 km
Semi-major axis
6,780.74 km
Eccentricity
0.00042
Inclination
70.0004°
RAAN
194.6838°
Arg. of periapsis
277.6361°
True anomaly
82.48258°
Mean anomaly
82.4348°
Eccentric anomaly
82.45869°
Mean motion
3.88712 °/min
Orbital period
92.61 mins
BSTAR
-0.0023947
Loading maneuver chart data...
Loading SW <> Apogee altitude chart data...
Loading historical data...
Loading historical data...
Loading historical data...
Loading historical data...
Loading historical data...
Loading historical data...
Loading historical data...
|